RH
10 10 9 9 9 9 9 9 9 9 9 9 8 8 8 8 8 8 8 8 8 8 8 8 8 8 8 8 8 7 8 7 7 7 7 7 7 7 7 7 7 6 6 6 6 6 7 6 6 7 6 7 7 7 9 9 10 10 10 10 10 11 12 12 12 13 14 19 21 36 75 81 54 47 57 72 85 99 104 99 99 101 102 89 78 68 55 67
9 9 9 9 9 9 8 8 8 8 8 8 8 8 8 8 8 8 9 9 9 9 9 9 9 9 9 9 9 9 9 9 8 8 8 7 7 7 7 7 7 7 7 6 7 6 6 6 6 6 6 6 6 7 7 8 8 9 10 9 10 10 11 12 12 13 12 14 16 24 64 86 63 47 63 86 97 101 99 96 101 102 99 89 83 74 61 68
9 9 9 9 9 9 9 9 9 9 9 9 10 10 10 10 10 10 10 10 10 10 10 10 10 9 9 9 9 9 9 9 9 9 9 8 8 8 8 7 7 7 7 7 7 7 6 6 6 6 6 6 6 6 6 7 7 8 9 9 10 10 10 11 10 13 12 12 13 14 42 80 77 54 62 87 100 103 92 86 99 100 92 91 90 82 70 68
12 11 11 11 11 11 11 11 11 11 11 11 11 11 12 11 11 11 11 11 10 10 10 10 10 9 9 9 9 9 9 9 9 9 8 8 8 8 8 8 8 8 7 8 7 7 7 6 6 6 6 6 6 6 6 6 6 7 7 8 8 9 9 10 10 11 12 12 13 11 19 58 86 70 60 72 82 92 85 79 94 95 89 93 88 78 70 69
13 13 13 13 13 12 13 12 12 12 12 12 12 12 12 11 11 11 11 11 10 10 10 10 10 9 9 9 9 9 9 9 9 9 8 8 8 8 8 8 8 8 8 8 8 8 8 7 7 6 6 6 6 6 6 6 6 6 6 7 7 8 9 9 10 9 11 11 12 13 9 30 72 82 72 73 73 76 77 80 90 86 84 92 78 61 60 69
13 13 13 13 13 13 13 13 12 12 12 12 12 12 11 11 11 11 11 11 10 10 10 10 10 10 10 10 10 10 10 10 10 10 9 9 9 9 8 8 8 8 8 8 8 8 8 8 7 7 7 6 6 6 6 5 5 6 6 6 6 7 8 8 9 9 10 11 10 13 11 12 39 65 70 73 79 81 81 84 89 82 81 91 79 56 51 68
13 13 13 13 12 13 12 12 12 12 12 12 12 12 11 11 11 11 11 11 11 11 11 11 11 11 11 11 10 10 11 11 11 10 10 9 10 9 9 9 9 9 9 8 9 9 8 8 8 8 8 7 7 6 6 6 5 6 5 5 6 6 7 7 8 9 9 10 10 10 13 11 14 33 42 47 60 77 89 90 89 86 89 97 86 60 47 64
13 13 12 13 12 12 12 12 12 12 12 12 12 12 12 12 12 12 12 12 12 12 12 12 12 12 11 12 11 11 11 12 12 11 10 10 10 10 10 9 9 9 9 9 9 9 9 8 8 8 8 8 8 7 7 6 6 6 6 5 5 6 6 7 7 8 8 8 10 9 10 12 10 14 20 23 27 43 69 87 92 93 100 104 87 57 40 53
14 14 14 13 13 13 13 13 13 13 13 13 13 13 13 14 14 14 14 14 13 13 13 13 13 13 13 13 12 12 12 12 13 13 12 11 11 11 10 10 10 10 9 9 9 9 9 8 8 8 8 8 8 8 7 7 7 6 6 6 5 6 5 6 6 6 8 7 8 10 9 10 11 11 12 14 15 16 31 57 76 85 99 103 84 54 34 41
15 15 15 15 15 15 15 15 15 15 15 15 15 15 15 15 15 16 16 15 15 15 14 14 14 14 14 14 13 13 13 13 13 13 13 12 12 11 11 11 10 10 10 9 10 9 9 9 9 9 8 8 8 8 8 7 7 7 7 6 5 6 5 5 6 6 7 8 7 8 9 9 10 11 11 11 13 13 12 23 39 59 85 97 88 58 31 32
16 16 16 16 16 16 16 16 16 17 16 17 17 17 17 16 17 17 17 17 16 16 16 15 15 15 15 15 14 13 13 13 14 14 13 13 12 12 11 11 11 10 10 10 10 10 9 9 9 9 8 8 8 8 8 7 7 7 7 7 6 6 6 5 5 6 6 6 7 7 8 9 9 9 11 11 11 13 12 12 16 36 65 85 87 55 24 29
16 16 16 16 17 17 17 17 17 18 17 18 17 18 18 17 18 17 18 17 17 17 17 17 17 17 17 16 15 14 14 14 15 15 14 14 13 13 12 11 11 10 10 10 10 10 9 9 9 9 9 8 9 8 8 8 7 8 7 7 7 6 7 6 5 6 6 6 6 7 7 8 9 9 9 10 11 11 12 12 12 22 39 60 66 36 19 33
15 16 16 17 17 17 18 18 18 18 18 18 18 18 18 18 19 18 19 18 18 18 18 18 18 18 18 17 16 15 15 15 16 16 15 14 13 13 12 11 11 10 10 10 10 10 9 9 9 9 9 8 8 8 8 8 7 7 8 7 7 7 7 7 7 6 6 6 6 6 7 7 8 8 9 9 10 11 11 12 12 13 18 34 40 20 19 35
14 15 15 16 17 17 18 18 18 19 19 19 19 19 19 19 19 19 20 19 19 19 19 19 19 19 19 18 17 16 16 15 16 17 16 15 13 13 12 11 11 10 10 10 9 9 9 9 9 8 9 8 8 8 8 8 8 7 8 8 7 8 8 7 7 7 6 6 6 6 6 7 7 8 8 9 9 10 11 11 12 12 12 18 21 13 19 33
12 13 13 14 15 15 16 17 18 18 19 19 20 20 20 20 20 20 20 20 20 20 19 19 19 19 19 19 18 17 16 16 16 17 16 15 13 12 11 11 10 9 10 10 10 9 9 9 9 8 8 8 8 8 8 7 8 8 7 8 8 8 8 8 8 7 7 6 6 7 6 6 6 7 8 8 9 9 10 11 11 12 11 12 14 12 17 25
10 11 11 12 13 13 14 15 16 17 18 19 20 20 20 20 20 21 21 20 20 20 19 19 19 18 19 19 19 17 16 15 16 16 15 14 13 12 10 10 10 10 11 11 11 10 10 11 11 11 11 10 10 8 9 8 8 8 7 7 7 8 7 8 8 7 8 7 7 7 6 7 6 7 7 7 8 9 9 10 10 11 11 12 12 12 13 16
9 9 10 10 11 12 13 14 15 16 17 18 19 19 20 20 20 20 20 20 19 19 19 18 18 17 18 19 19 18 15 14 15 15 14 13 12 12 11 12 12 12 13 14 14 13 13 15 15 15 15 14 13 12 11 11 10 9 8 8 7 7 7 7 8 8 8 8 8 7 7 7 6 7 7 7 8 8 9 10 10 11 10 11 11 13 12 11
9 9 9 9 10 11 12 13 14 15 16 17 18 18 19 19 19 19 19 19 18 18 18 17 17 16 17 17 17 16 13 13 14 13 12 12 13 13 12 13 14 16 18 17 17 16 17 18 17 17 17 17 16 15 15 14 14 13 11 10 8 8 7 7 8 8 8 8 8 8 8 7 7 7 6 7 7 7 9 8 10 11 11 11 10 12 12 10
9 9 9 10 10 11 12 14 15 16 17 17 17 17 17 18 18 18 18 17 17 16 15 15 14 14 14 15 15 13 12 13 14 12 12 13 14 14 14 16 18 20 21 20 19 18 18 19 18 18 17 17 17 16 16 16 16 15 14 13 11 9 8 8 7 7 8 8 8 8 8 8 8 7 7 7 7 7 8 8 9 10 10 12 11 12 11 10
9 9 11 11 11 12 13 15 16 16 16 16 16 16 16 16 16 16 15 14 14 14 13 13 12 12 13 14 13 12 13 14 14 12 13 14 15 16 18 20 22 23 22 20 19 19 20 20 19 19 18 18 18 17 17 16 16 15 15 15 13 12 10 9 8 7 8 7 8 8 8 9 8 8 7 7 7 7 7 8 8 9 10 11 11 12 12 11
11 11 12 13 13 13 14 15 15 15 14 14 14 14 14 14 13 13 13 13 14 14 14 13 13 14 15 15 13 13 14 15 14 14 14 15 18 20 22 22 23 24 22 20 21 21 21 21 19 19 19 19 18 18 18 17 17 16 16 15 15 14 12 11 9 8 8 7 8 8 8 9 8 9 8 8 8 7 8 7 7 8 9 10 11 12 12 15
12 13 13 13 13 13 13 13 13 13 13 13 13 13 13 13 13 14 14 14 16 16 15 14 14 15 15 15 14 14 16 15 15 15 16 18 22 23 23 22 24 26 24 22 22 21 21 21 20 20 19 19 18 18 18 17 18 17 17 16 16 15 14 14 11 10 9 8 8 8 8 9 9 10 9 9 8 8 8 7 8 8 8 10 10 12 13 22
12 12 12 12 12 12 12 13 13 13 13 13 13 13 13 14 14 14 14 14 16 16 14 15 15 15 15 15 16 17 16 17 18 18 18 21 23 22 22 24 25 26 23 22 22 22 23 22 22 21 20 19 19 18 18 18 18 18 18 18 17 17 16 16 14 12 10 9 9 9 9 9 9 10 10 10 9 9 9 8 9 8 8 10 9 11 12 21
12 12 12 13 13 13 13 13 14 14 14 14 14 14 13 13 14 13 13 13 14 15 13 14 15 14 15 17 17 18 18 20 21 20 21 21 20 20 23 24 25 26 24 22 23 23 24 24 23 23 21 20 20 20 19 18 18 18 18 19 18 17 17 17 16 14 13 11 11 10 10 10 10 10 10 10 10 10 9 9 9 8 9 10 8 12 10 14
13 13 13 14 14 14 14 15 15 15 15 16 15 15 15 15 14 14 14 14 13 14 13 14 14 14 15 16 18 19 20 22 23 21 20 20 19 21 23 23 24 26 25 24 25 25 24 25 25 23 22 23 22 22 20 19 18 17 18 19 19 18 18 18 18 17 17 14 13 12 11 11 11 11 10 11 11 10 10 9 9 9 9 10 9 10 10 13
14 15 15 16 16 16 17 17 18 18 18 18 18 18 17 17 16 16 15 15 14 15 15 15 15 14 15 16 18 19 20 21 21 20 20 20 21 23 23 22 24 27 27 26 26 26 26 26 26 25 24 25 24 23 23 21 20 18 18 18 19 20 20 20 20 20 20 16 14 13 13 13 13 12 11 11 11 10 11 11 10 10 8 10 10 9 12 10
18 19 19 19 20 20 20 20 21 21 21 21 22 21 21 20 19 18 17 16 16 16 16 16 15 15 15 15 17 18 18 19 19 19 21 23 24 24 23 23 25 27 27 27 27 27 28 28 29 29 29 29 28 28 27 25 23 20 18 17 17 18 18 20 19 19 20 18 16 14 14 15 14 14 12 11 12 11 11 12 12 14 14 15 13 10 12 12
22 21 21 21 21 21 21 22 23 25 25 25 25 25 24 24 22 21 20 19 19 19 18 17 16 16 16 15 16 17 18 18 18 20 23 25 25 24 24 24 26 28 26 26 27 28 30 32 34 34 35 35 34 34 33 30 26 22 21 19 18 18 17 18 18 18 19 18 19 18 16 15 14 14 14 14 14 13 12 13 13 16 21 29 32 23 14 25
23 22 21 21 21 20 20 21 23 26 27 28 28 28 27 27 27 25 24 23 22 21 20 19 19 18 18 17 17 17 18 19 19 21 23 24 24 24 25 25 26 27 27 27 28 29 32 35 38 39 40 41 40 39 37 34 31 29 27 24 22 20 18 19 20 19 19 18 19 20 18 16 15 14 16 17 18 17 16 15 15 16 20 30 44 46 34 35
22 22 21 21 22 22 22 22 23 26 27 29 30 31 31 30 31 30 29 28 26 25 23 23 22 22 21 20 20 19 20 21 20 20 23 24 24 25 25 25 25 27 29 30 31 33 35 38 41 43 44 45 45 43 41 40 37 35 34 31 27 23 21 21 21 21 21 19 19 20 20 19 17 16 16 18 21 23 23 20 19 20 22 28 39 54 60 56
22 23 22 23 23 24 24 24 25 27 29 30 31 32 32 33 34 36 36 34 31 29 27 26 25 24 23 23 23 23 23 24 23 22 23 24 25 26 27 27 28 31 33 35 37 37 39 42 44 46 48 49 47 45 47 48 45 42 41 38 34 30 27 23 22 21 20 20 19 20 22 22 22 21 19 18 20 24 29 28 27 26 29 36 41 50 64 73
21 21 21 22 23 24 25 26 27 28 29 32 33 34 35 34 35 37 39 38 38 37 35 33 30 27 25 25 25 25 25 26 26 24 24 26 28 30 32 32 32 35 37 38 40 40 41 44 45 46 48 48 47 46 49 53 51 50 50 47 42 38 33 27 23 21 20 21 21 20 22 23 24 24 23 23 23 23 28 32 33 34 36 42 46 50 56 66
20 20 19 20 21 22 23 25 27 28 30 32 34 36 37 39 39 38 38 40 41 41 41 42 40 35 31 29 27 26 26 27 27 26 26 27 30 33 35 36 36 36 37 38 39 39 41 42 43 44 44 45 46 49 52 54 54 55 56 54 49 44 39 32 26 21 19 21 22 21 21 22 24 23 23 25 27 26 27 31 35 39 46 52 53 53 53 56
20 20 19 19 19 19 21 23 25 28 30 33 35 36 37 39 41 42 41 41 41 40 40 45 49 47 43 39 35 31 28 27 27 27 27 27 29 31 33 35 36 35 35 36 37 38 38 39 40 40 41 43 45 49 53 55 55 58 60 58 55 51 44 37 30 24 21 22 24 24 22 22 23 23 23 23 25 28 30 32 35 41 54 67 73 72 67 62
22 21 20 20 19 19 19 21 23 27 29 32 36 38 38 37 38 39 41 42 42 42 42 43 48 51 52 50 46 41 37 33 30 28 28 29 29 30 30 32 34 34 34 35 36 37 36 37 38 38 39 41 44 47 51 55 56 59 62 60 60 58 48 39 33 28 25 23 24 24 24 24 24 25 26 24 24 25 28 32 35 39 49 64 76 83 83 76
24 23 23 23 22 21 20 20 22 25 28 30 33 37 40 39 38 37 37 38 39 41 43 44 45 48 53 57 55 51 47 44 41 36 33 31 30 30 31 31 32 33 33 35 36 37 36 36 37 36 36 38 41 44 48 51 53 58 62 60 60 59 50 42 37 35 31 27 24 24 25 28 28 26 27 27 26 24 24 29 35 41 48 56 66 74 80 82
26 26 26 26 26 25 24 23 23 23 25 28 31 34 37 39 39 38 37 36 36 36 38 40 42 43 48 55 57 55 52 50 50 48 45 41 37 34 33 32 32 32 33 33 34 34 34 34 35 35 35 36 37 40 43 45 47 54 60 59 58 59 54 48 45 42 37 31 29 27 25 28 29 28 27 26 27 27 24 26 31 42 53 64 76 83 88 90
28 28 29 29 30 29 29 28 27 27 26 26 27 30 32 35 38 40 41 40 37 37 36 36 36 38 40 44 47 48 47 46 46 47 49 52 52 50 47 43 40 37 36 35 35 35 34 34 34 34 34 34 35 37 40 42 43 49 56 57 59 62 59 55 54 50 43 35 33 32 28 25 26 28 30 28 26 28 27 25 25 34 51 72 91 98 97 98
30 30 31 32 33 33 33 33 33 32 31 30 28 28 30 31 32 37 42 46 45 43 41 38 36 35 35 35 36 37 38 38 37 36 39 45 50 54 57 58 56 53 51 48 45 44 43 42 42 41 40 39 39 39 39 42 44 47 52 55 59 63 61 61 63 60 53 42 36 35 30 25 25 26 26 27 27 27 29 27 24 25 36 61 90 103 101 99
33 33 33 34 36 36 36 37 37 37 37 36 35 33 32 31 30 32 37 42 47 49 49 47 43 39 36 35 35 35 35 35 35 35 35 36 38 41 46 51 54 57 60 60 56 55 56 55 53 51 51 50 49 48 46 45 46 48 50 53 59 61 60 65 72 72 67 56 45 39 35 30 29 28 24 23 26 30 31 30 26 24 25 38 66 92 103 104
34 34 34 35 37 39 39 39 39 40 41 41 41 40 39 37 36 35 35 36 39 44 50 54 55 52 47 43 40 37 36 36 36 37 37 37 37 37 36 38 40 43 48 51 51 52 56 60 59 57 59 59 55 53 53 52 51 51 52 53 57 60 61 68 79 87 86 71 55 48 47 44 39 35 31 26 25 29 33 33 31 28 25 24 36 60 84 99
35 34 34 35 38 40 41 41 41 42 43 44 45 45 44 43 42 40 38 37 36 38 42 47 52 57 58 56 53 49 46 44 42 40 40 40 40 40 39 38 37 37 38 39 40 41 44 48 50 50 56 62 61 59 60 59 54 54 53 52 56 60 62 66 77 95 99 84 68 59 58 61 57 47 40 33 28 28 31 32 33 32 30 26 24 32 51 72
39 39 38 38 39 41 42 42 43 43 44 45 46 47 48 48 47 46 44 41 39 37 37 39 42 46 52 55 57 57 56 55 53 50 48 46 45 45 44 43 41 40 39 38 38 38 38 39 40 39 44 53 57 59 65 66 63 58 50 47 54 59 61 63 73 92 101 95 90 78 66 70 76 65 49 39 35 33 30 31 32 33 34 32 29 28 32 44
43 43 43 42 42 43 43 44 44 45 45 46 47 48 49 50 51 51 51 49 46 42 38 37 37 39 42 45 48 50 52 53 54 53 52 50 49 48 48 47 46 45 43 42 41 40 39 39 40 39 39 42 44 45 52 60 66 63 50 43 48 54 58 62 70 89 100 101 103 95 78 77 86 82 62 44 41 40 37 36 37 39 41 38 35 35 35 37
45 45 44 45 45 45 45 45 45 46 46 47 48 49 50 51 52 54 56 56 55 52 47 41 37 35 37 39 41 43 44 45 46 47 48 49 49 49 49 48 48 47 47 46 45 44 42 41 41 41 40 40 40 39 39 45 55 61 57 50 47 48 52 57 67 85 99 103 106 101 83 73 81 88 76 55 48 47 45 43 41 46 53 49 41 39 41 42
47 47 46 47 47 48 47 47 46 46 47 47 48 50 51 52 53 55 57 59 59 59 57 51 44 38 35 35 37 39 40 41 40 41 43 44 45 47 48 49 49 48 47 47 47 46 46 45 44 44 43 41 41 41 39 39 44 49 51 50 49 48 49 51 60 76 91 99 105 101 85 69 71 85 85 69 58 56 54 51 45 46 54 56 48 43 43 46
50 51 51 51 51 51 50 50 49 48 49 49 49 50 52 53 55 56 58 60 62 63 61 58 52 47 41 37 35 38 41 42 42 42 42 41 42 43 44 46 47 47 45 45 45 46 46 46 45 45 46 45 43 43 42 41 41 41 42 44 46 50 52 52 55 65 79 90 94 96 94 83 75 80 83 73 65 67 68 62 53 49 53 57 56 50 46 47
55 54 54 53 53 54 54 53 53 51 50 50 50 51 52 53 55 58 60 61 64 65 64 61 56 51 48 43 39 39 41 43 46 47 46 45 44 42 40 40 41 43 41 39 39 41 42 43 44 44 44 44 44 44 44 43 43 42 42 42 42 45 51 57 58 59 70 81 83 87 95 94 86 82 79 72 69 75 80 76 67 58 53 55 57 55 51 50
55 55 54 54 55 56 56 56 55 54 52 50 49 50 51 51 53 56 58 61 65 67 65 62 58 53 50 46 43 42 41 42 44 45 46 48 48 46 42 39 38 40 41 38 36 36 36 38 40 41 41 42 42 43 43 44 44 44 43 43 43 42 44 52 57 57 63 72 77 82 88 92 93 91 87 83 82 83 86 87 79 67 59 55 54 55 57 60
52 52 53 53 53 54 56 58 58 57 56 53 50 49 49 49 50 52 56 59 63 66 65 61 57 53 49 46 44 43 42 42 42 43 42 45 48 48 46 44 41 40 41 41 39 36 34 35 37 38 40 41 40 40 40 41 42 44 44 44 44 43 41 42 46 52 59 64 69 77 82 83 89 99 101 99 95 92 95 97 84 68 62 60 58 60 64 70
53 53 53 53 53 53 55 58 59 59 58 56 54 52 51 50 49 50 54 58 62 65 64 61 57 52 48 45 43 41 40 41 43 45 45 45 47 47 47 48 46 42 41 41 40 38 36 35 36 37 40 42 41 40 39 38 38 40 42 44 44 44 43 41 40 46 57 64 67 71 76 74 78 94 106 106 98 90 93 99 86 66 61 61 59 65 74 80
56 56 56 55 55 54 54 56 56 56 56 55 55 54 53 52 49 49 52 57 61 64 63 60 56 51 46 43 40 38 37 39 43 46 48 49 49 48 47 48 48 46 45 43 40 40 38 37 38 37 37 42 44 42 40 40 39 37 38 40 42 43 43 42 41 40 47 60 68 71 72 69 70 84 99 106 102 89 85 95 95 77 63 58 56 63 78 91
Wind_Speed
27 27 27 27 27 27 27 28 28 28 28 28 28 27 27 27 27 27 27 26 26 26 26 25 25 25 25 25 26 26 26 27 27 28 29 29 29 30 30 30 31 32 33 35 36 37 39 41 43 44 43 43 43 43 42 41 40 40 39 37 36 35 34 33 32 32 32 32 33 31 29 30 31 30 27 24 22 19 16 16 18 19 18 17 16 15 14 13
26 26 26 26 26 27 27 27 27 27 27 26 26 26 26 26 25 25 25 25 24 24 24 23 23 23 24 24 24 24 24 25 26 26 27 28 28 28 29 29 30 31 33 34 35 37 38 40 42 43 44 44 45 45 44 44 44 43 41 40 39 38 36 35 34 34 33 34 34 33 31 32 33 33 30 27 26 24 21 19 20 20 20 18 17 16 15 14
24 24 24 24 24 24 25 24 24 24 24 24 24 24 24 24 24 24 24 24 24 24 24 24 24 24 24 24 24 24 24 25 26 27 27 27 27 27 27 28 29 30 32 33 35 36 38 39 41 42 43 44 45 45 46 46 46 45 44 43 42 41 39 38 37 36 36 35 35 34 33 33 34 35 33 31 30 28 26 23 21 21 21 19 18 17 16 16
22 22 22 22 22 22 23 23 23 23 23 23 23 23 24 24 24 25 25 25 25 25 25 25 25 25 25 26 26 26 25 26 27 28 28 28 28 27 27 27 28 29 31 32 33 35 37 39 40 40 42 43 44 45 46 47 47 47 47 46 45 44 42 41 39 39 38 38 37 36 35 34 34 35 35 34 33 31 29 27 25 24 22 20 19 19 18 18
22 22 22 22 22 23 23 23 23 24 24 24 24 24 25 25 26 26 27 27 27 27 26 26 26 26 27 27 27 27 27 27 29 29 30 29 29 28 28 28 29 30 31 31 32 34 36 38 38 39 41 42 43 44 46 47 48 48 48 48 47 47 45 44 42 41 40 40 40 39 38 36 35 34 34 35 35 34 32 30 29 28 25 22 20 20 20 19
24 24 24 24 24 24 24 25 25 25 25 25 25 26 26 27 27 28 28 28 28 28 28 28 28 28 28 29 29 28 28 29 30 31 31 30 30 29 29 29 30 31 32 32 32 34 36 37 37 38 40 41 42 44 45 46 47 48 49 49 49 49 48 47 45 44 43 42 42 42 40 39 38 37 35 34 35 35 34 33 32 31 28 24 23 22 21 20
26 26 26 26 26 26 26 26 26 26 27 27 27 27 28 28 29 29 30 30 30 30 30 30 29 29 30 30 30 30 30 30 31 32 32 31 31 31 30 30 31 32 32 32 33 35 37 37 37 38 39 40 42 43 44 45 46 47 48 49 50 50 50 49 48 47 46 45 45 44 43 42 40 40 39 37 37 37 36 35 34 32 29 27 25 24 23 21
28 27 27 27 27 27 28 28 28 28 28 28 29 29 29 29 30 31 31 31 32 31 31 31 31 31 31 32 32 31 31 31 32 34 34 33 32 32 32 31 32 33 33 33 33 35 37 37 37 38 39 40 41 43 44 45 46 47 47 48 49 50 50 50 50 49 49 48 47 47 46 45 43 42 41 39 39 39 38 37 35 34 31 28 26 25 24 23
29 29 29 29 29 29 29 29 29 29 29 30 30 30 30 31 31 32 33 33 33 33 33 33 33 32 33 34 34 33 32 32 33 34 34 34 34 33 33 32 32 33 34 33 34 35 37 37 37 38 40 41 42 43 44 44 45 46 47 48 48 49 50 50 51 51 51 51 50 50 48 47 46 45 43 41 41 41 40 39 37 35 34 31 28 26 25 24
31 31 31 31 30 30 30 30 30 30 31 31 31 31 32 32 32 33 34 34 34 35 34 34 34 34 34 35 35 34 33 33 33 35 35 35 34 34 33 33 33 34 34 34 34 36 37 37 37 39 40 41 42 43 44 44 45 46 46 47 48 49 49 49 50 51 52 53 53 52 51 50 48 47 45 44 43 42 41 40 38 37 36 34 32 29 28 27
32 32 32 32 32 32 32 32 32 32 32 32 33 33 33 33 34 34 35 35 35 36 36 35 35 35 35 37 36 35 34 33 34 35 35 35 34 34 34 34 34 34 34 34 34 36 36 37 38 39 40 41 42 43 44 45 45 46 46 47 47 48 49 49 50 50 52 53 54 54 53 52 50 49 47 46 45 44 43 41 39 38 37 36 35 33 31 29
33 33 33 33 33 33 33 33 33 33 33 34 34 34 34 35 35 35 36 36 36 36 36 36 35 35 36 38 37 35 34 33 34 35 36 36 35 35 35 34 34 34 34 34 34 35 36 37 38 39 40 40 41 42 44 44 45 45 46 46 47 48 48 49 49 50 51 52 53 54 54 54 53 52 50 48 47 46 45 43 41 40 39 38 36 34 32 30
33 34 34 34 34 34 34 34 34 34 35 35 35 35 35 35 35 36 36 37 37 37 37 37 36 36 37 39 38 37 35 34 34 36 37 37 35 35 35 35 34 34 33 33 34 35 36 36 37 38 39 39 40 42 43 43 44 44 45 46 47 47 48 49 49 50 51 51 52 53 54 54 54 53 52 50 49 48 47 45 44 43 41 40 39 36 33 30
33 34 34 35 35 35 35 35 35 35 35 36 36 36 36 36 36 37 37 38 38 38 38 37 37 36 37 39 39 38 36 34 34 36 37 37 36 36 35 34 34 33 32 32 32 34 34 34 34 36 37 37 38 40 41 42 42 43 44 45 46 47 48 49 49 50 50 51 52 52 53 54 54 54 54 52 51 50 48 47 46 45 44 42 41 38 35 32
32 33 34 34 35 35 35 35 35 35 35 36 36 37 37 36 37 37 38 38 38 38 38 38 38 37 37 39 40 39 37 35 35 36 36 36 36 36 34 33 32 30 29 28 29 30 29 29 30 31 32 33 34 36 37 39 40 41 43 44 46 47 48 48 49 49 50 50 51 52 52 53 53 54 54 54 53 52 50 49 48 47 45 44 42 40 38 35
31 32 33 33 34 34 34 34 34 34 35 35 36 36 36 37 37 38 38 38 38 38 38 38 38 38 38 39 40 40 38 35 35 36 36 35 35 35 33 30 28 25 24 23 24 24 23 22 23 24 25 26 28 30 31 33 35 37 39 42 44 45 47 48 48 49 49 50 51 51 51 52 52 52 53 54 54 53 52 50 49 48 47 45 43 42 40 38
30 30 31 32 32 32 32 32 32 33 34 34 35 35 36 36 36 37 38 37 38 38 38 38 38 38 38 39 40 41 38 35 34 36 36 34 32 31 28 25 22 20 19 18 19 19 17 16 17 18 19 21 22 23 24 26 28 30 33 36 39 42 45 46 47 48 49 49 50 51 51 51 51 52 52 53 53 53 53 52 50 49 48 46 44 43 42 39
29 29 30 30 30 29 29 30 30 31 32 32 33 34 34 35 35 36 37 37 37 38 38 38 38 38 38 39 40 41 38 34 33 35 33 30 28 26 23 19 17 16 15 15 16 15 13 13 15 15 16 17 19 19 20 21 22 24 27 30 33 36 39 42 44 46 48 49 50 50 50 50 51 51 51 52 52 53 53 52 51 50 49 47 46 44 43 41
28 28 28 29 28 27 26 27 28 29 30 30 31 32 33 33 34 35 36 37 37 38 38 38 37 37 37 38 39 39 34 30 31 32 29 24 23 21 17 15 13 13 13 14 13 12 12 13 14 14 15 16 17 18 18 19 20 21 23 25 27 30 33 35 39 42 45 47 48 49 49 49 50 50 51 51 51 52 52 52 51 50 49 48 46 45 43 42
26 26 26 27 25 24 23 24 26 27 28 29 30 30 31 32 33 34 35 35 35 36 36 35 34 33 33 35 36 33 28 26 28 27 23 19 18 16 14 12 11 12 13 13 13 12 12 13 14 13 14 15 16 17 18 18 18 19 20 21 24 26 28 30 34 38 41 44 46 47 48 48 48 49 50 50 50 50 50 50 51 50 50 48 47 45 44 42
23 22 23 24 23 21 22 23 25 26 27 27 27 28 29 30 30 31 31 31 31 31 31 30 29 26 27 30 30 25 22 22 24 21 17 15 14 12 11 10 10 11 13 13 12 12 12 13 13 12 12 13 14 15 16 16 17 17 18 19 20 22 24 26 29 32 36 39 42 45 46 47 47 47 48 49 49 49 49 49 49 49 49 49 48 46 45 43
20 20 21 22 21 20 21 22 22 23 23 23 24 24 25 25 25 25 25 24 24 25 26 25 23 21 23 26 24 19 19 19 19 17 14 11 11 10 10 9 9 11 13 12 11 11 11 11 12 11 11 11 13 14 14 14 15 15 16 16 18 19 20 22 24 25 29 32 37 41 43 44 45 45 45 46 47 48 48 48 47 48 48 48 48 47 46 44
18 18 18 18 18 17 17 17 17 17 18 18 19 19 19 20 20 20 20 19 19 22 22 20 19 18 19 20 17 16 17 15 14 14 11 9 10 9 8 8 9 11 12 10 9 9 9 10 10 11 11 11 12 13 13 13 13 14 14 15 16 17 17 19 20 21 24 27 30 35 39 40 41 43 43 44 45 46 46 46 46 46 47 47 47 47 47 45
15 14 14 13 13 13 12 12 12 12 13 13 14 14 14 14 15 15 16 15 15 18 18 15 15 15 14 14 13 13 13 12 12 12 10 9 10 8 7 8 8 10 10 9 8 7 7 8 9 10 10 11 12 13 13 13 12 12 12 13 14 15 15 16 17 18 20 22 25 29 33 36 38 40 41 42 42 43 44 45 45 45 45 45 46 47 46 45
10 10 10 9 9 9 9 8 9 8 9 10 10 11 11 11 11 11 12 12 13 14 14 12 12 11 10 9 10 10 10 10 11 11 10 10 8 6 8 8 7 8 10 8 7 7 7 8 9 9 10 11 12 13 13 13 12 11 10 11 12 12 13 14 14 15 16 19 21 24 27 30 34 37 39 40 40 41 41 42 43 43 44 44 45 45 44 43
7 7 7 7 8 8 8 7 8 8 8 9 9 9 10 10 10 10 11 11 10 10 10 8 9 10 8 6 6 8 8 10 11 10 9 9 8 7 8 7 6 8 9 7 6 6 7 7 8 9 10 11 12 13 14 15 14 12 10 9 9 9 10 11 13 14 16 17 19 21 23 25 29 33 36 38 38 38 39 40 41 41 42 42 43 43 43 43
6 6 7 8 9 9 10 9 9 10 10 10 10 10 10 10 10 11 12 11 9 8 8 8 9 9 8 5 5 6 8 9 10 8 8 8 8 8 8 7 6 8 8 7 5 6 6 6 8 9 10 11 12 13 14 15 15 13 11 9 8 8 8 9 10 12 13 15 16 17 20 22 25 29 33 35 36 36 37 38 38 38 39 40 41 42 42 42
8 9 10 11 11 12 12 12 12 13 13 13 12 12 11 10 10 12 13 12 10 9 9 10 10 9 9 7 6 6 7 8 8 6 7 8 9 9 9 8 7 8 8 6 5 5 5 6 7 8 9 10 11 12 14 15 14 13 12 11 11 11 10 9 9 10 10 11 12 14 17 20 23 26 28 31 33 34 35 36 37 37 37 37 38 39 41 41
10 12 13 14 15 15 15 15 15 15 16 16 15 15 14 12 12 12 13 13 12 10 10 10 10 10 10 10 9 7 6 7 7 5 7 9 10 10 10 9 8 8 8 7 6 6 6 6 7 8 9 10 11 13 14 15 15 14 14 14 14 13 13 12 12 12 11 11 11 12 15 18 21 22 24 27 30 31 33 34 35 36 37 37 37 38 39 41
10 12 14 15 16 17 18 18 18 18 18 18 17 17 17 16 15 14 14 14 13 10 9 9 9 10 10 10 10 9 7 7 8 7 7 9 10 10 10 9 8 9 9 8 8 8 7 7 7 8 9 9 11 12 13 15 16 15 15 15 15 14 14 14 15 14 14 12 11 11 13 16 18 20 22 25 27 29 30 32 33 34 35 37 38 38 39 40
11 12 13 14 15 16 17 18 19 19 19 20 19 19 19 18 17 16 15 15 14 12 11 10 9 9 8 9 8 7 6 7 9 8 8 10 10 10 11 10 9 9 10 9 10 10 9 8 9 9 9 10 11 11 11 13 15 15 15 15 16 16 15 15 14 14 14 12 11 10 11 13 15 18 20 22 25 27 29 30 31 32 33 34 36 37 38 38
12 13 13 14 15 15 16 17 18 19 19 20 20 20 20 19 18 18 17 16 15 14 12 12 11 10 9 10 10 8 5 7 10 10 9 11 11 11 12 12 11 11 11 11 11 11 10 10 10 10 10 11 11 11 10 11 13 14 14 15 16 16 16 15 14 12 12 11 10 9 10 12 13 16 18 20 23 25 27 28 29 30 30 31 33 34 36 37
12 13 13 14 14 14 15 15 16 18 18 19 20 20 21 20 20 20 19 18 17 16 14 13 13 13 13 13 14 12 9 9 11 12 12 12 13 13 14 14 13 13 13 12 12 12 12 12 12 12 12 12 11 11 11 11 11 11 12 14 14 15 16 16 15 11 9 9 10 10 10 11 13 15 16 18 20 23 25 27 28 28 28 29 30 31 33 35
13 13 14 13 13 13 13 13 14 15 17 18 19 19 20 21 21 21 21 20 19 18 16 15 14 14 15 15 16 15 14 13 14 15 15 15 15 15 15 15 15 15 15 14 13 13 14 15 15 15 15 14 13 13 13 13 12 10 11 13 13 13 15 16 15 12 10 10 9 10 10 11 13 14 15 16 18 20 23 25 27 28 28 28 29 29 31 33
15 16 16 15 15 14 13 12 12 12 14 16 17 18 19 20 21 22 22 22 21 20 19 18 18 17 17 19 19 18 17 16 16 17 18 18 18 17 16 16 17 18 17 16 15 15 16 16 17 18 17 16 16 15 14 15 13 11 11 12 12 13 14 15 15 13 12 11 9 9 9 10 12 13 14 14 16 18 21 24 26 28 29 29 29 29 29 31
17 18 19 19 18 17 16 15 13 12 12 13 15 17 18 19 20 21 22 23 22 22 21 21 21 21 21 22 22 22 21 20 20 20 20 20 21 20 20 19 20 21 20 20 19 19 19 18 19 19 18 18 19 19 18 17 15 13 13 13 12 12 14 14 14 14 13 13 11 9 7 8 10 12 14 14 15 17 20 23 26 28 29 29 28 29 29 30
17 19 20 21 22 22 21 19 17 15 13 13 13 15 16 18 19 20 21 22 22 21 21 21 22 22 23 24 25 25 25 24 24 23 22 22 23 23 23 23 23 23 23 24 24 24 23 22 22 21 20 20 20 21 21 20 17 14 15 15 14 14 14 14 14 14 14 13 12 10 7 6 8 11 13 14 15 16 19 23 27 29 30 30 29 29 29 30
17 19 20 22 23 24 24 23 22 20 18 16 15 15 15 16 18 19 20 21 21 21 21 21 21 22 23 25 27 27 28 27 27 26 25 25 25 25 26 26 26 26 26 27 28 27 27 26 25 25 24 23 22 21 22 23 20 16 16 17 17 16 15 14 14 14 15 13 11 10 9 7 6 8 11 14 15 16 18 22 26 29 30 31 31 30 30 30
16 18 20 21 23 24 24 24 24 23 22 20 19 18 17 17 17 17 18 20 21 22 23 22 22 22 23 25 26 27 28 28 28 27 27 27 28 28 29 30 30 29 29 31 31 29 29 29 28 27 27 27 26 23 23 24 23 20 18 18 19 18 16 14 14 15 16 16 12 11 10 8 6 6 8 11 13 15 18 21 24 27 30 32 33 33 33 32
17 18 20 21 22 23 23 24 24 23 23 23 22 21 20 20 19 18 17 18 20 21 23 24 24 23 24 24 26 27 27 27 27 26 26 27 28 29 30 31 32 32 33 34 33 32 32 32 31 30 29 30 30 26 24 25 25 23 20 19 20 20 17 14 13 15 17 17 15 12 11 10 9 8 7 7 10 14 17 20 22 25 28 32 34 35 36 35
17 18 20 21 22 23 23 23 23 23 23 23 23 23 23 22 22 20 18 18 18 19 21 22 23 24 24 25 26 27 27 27 27 27 27 27 28 30 31 31 32 32 33 35 35 34 34 35 34 33 31 33 33 30 28 27 27 26 24 21 21 20 18 13 11 13 16 18 16 12 10 11 10 10 9 6 6 10 15 18 20 23 26 29 32 35 37 38
17 18 20 21 22 23 23 23 24 24 24 24 23 24 24 23 23 22 20 19 19 19 19 20 22 24 25 26 27 27 28 28 29 30 30 30 30 31 32 33 33 33 33 34 34 35 35 36 36 35 34 36 36 33 32 32 30 30 29 25 22 21 19 16 11 11 15 17 16 13 10 10 11 11 9 7 6 7 11 15 18 21 23 26 29 32 35 37
17 18 19 20 21 22 23 23 24 25 25 25 24 24 24 24 24 23 22 21 21 20 19 20 21 23 25 27 28 28 28 29 30 31 33 33 33 33 34 34 34 34 35 35 35 36 35 35 36 36 35 37 37 36 36 36 34 34 33 29 25 22 21 19 15 13 15 16 16 14 12 11 11 11 10 7 6 7 8 11 14 17 20 22 25 28 32 35
16 17 18 20 21 21 22 23 24 25 26 26 26 26 26 25 26 25 25 24 23 23 21 21 20 21 24 27 28 30 30 30 31 32 33 34 35 36 36 36 36 36 37 37 38 38 37 37 37 37 37 38 38 38 38 38 38 37 35 32 29 26 24 21 17 16 17 16 15 16 16 14 12 12 12 10 7 7 8 9 11 14 17 20 22 24 27 31
15 16 18 19 21 22 23 23 24 25 26 27 27 28 28 28 28 27 27 27 27 26 25 24 22 21 22 25 28 30 32 32 33 34 34 35 36 37 38 39 39 39 39 40 40 40 39 39 40 40 40 39 40 40 38 37 38 39 37 35 33 31 29 25 21 20 20 19 18 18 19 18 14 12 13 13 10 9 8 9 10 12 15 19 21 23 25 27
15 16 18 19 20 22 23 24 25 26 27 28 28 29 29 30 30 30 30 30 30 30 29 28 27 26 25 25 27 30 32 34 35 36 37 39 39 40 41 42 43 43 43 43 43 43 42 41 42 43 43 42 42 42 40 38 38 40 39 37 35 34 33 30 26 24 24 23 22 21 22 21 17 15 15 15 14 12 11 10 10 11 13 16 19 22 24 25
15 17 18 19 21 22 23 25 26 27 28 29 29 30 31 32 33 33 33 33 33 33 32 31 31 31 30 29 30 31 33 35 36 37 39 40 41 43 43 44 46 47 47 47 47 46 45 44 45 45 47 47 46 45 43 41 41 40 40 39 38 37 36 35 32 29 28 28 26 24 24 24 21 19 18 17 16 15 14 14 13 12 13 14 16 19 22 24
16 18 19 21 22 23 25 26 27 28 29 30 30 31 32 33 34 35 36 37 37 36 35 35 35 34 33 33 32 33 35 37 38 39 40 41 43 43 44 45 46 48 49 49 49 49 47 47 47 48 49 51 50 48 47 45 44 43 42 42 41 39 39 38 37 34 32 32 30 27 26 27 24 23 22 20 18 17 17 17 16 15 15 15 16 17 18 20
16 19 21 22 24 25 26 27 29 30 31 31 32 32 33 34 35 37 38 39 40 39 39 38 38 37 36 36 35 35 37 38 40 41 42 43 44 45 45 45 45 46 48 49 49 49 48 48 48 49 50 52 53 52 50 49 48 48 47 46 44 42 41 41 40 38 36 36 34 31 30 29 27 25 25 23 21 20 20 20 20 19 17 16 16 16 15 16
18 20 22 23 25 27 28 30 31 32 33 34 35 36 36 37 38 39 41 41 42 43 43 42 42 41 39 39 38 38 39 40 42 43 43 43 45 46 46 47 46 46 47 48 49 48 47 47 47 48 50 53 55 55 54 53 51 51 51 51 48 46 45 43 42 41 40 39 38 35 34 32 29 28 28 28 25 23 23 23 23 22 20 19 17 16 15 13
20 22 24 25 27 28 30 31 33 34 36 38 39 40 40 41 41 42 44 45 45 46 46 46 46 45 43 42 41 40 41 42 43 46 46 46 46 47 47 48 49 48 47 48 49 49 48 47 47 48 49 51 55 56 55 55 54 54 55 54 52 51 49 46 44 42 42 42 41 40 39 36 32 31 32 31 29 28 26 26 27 25 22 21 19 18 17 15
21 23 25 27 29 30 31 33 34 36 38 40 41 43 44 45 46 47 47 49 50 50 51 51 50 48 46 45 45 44 43 43 44 46 48 49 49 49 48 48 49 49 50 50 50 49 49 48 49 50 48 49 54 57 56 56 57 57 57 56 55 55 53 50 47 45 44 45 45 44 43 40 36 35 34 33 32 31 29 28 29 28 26 24 22 20 19 18
Wind_Direction
261 263 264 265 266 267 268 269 271 272 273 274 274 275 276 276 276 277 276 276 276 276 275 275 274 274 273 272 271 270 269 269 268 267 265 264 262 260 259 257 256 255 254 253 252 252 251 251 251 250 248 247 247 247 247 246 245 244 242 241 240 238 236 234 235 235 236 236 237 237 236 232 226 227 231 235 236 236 240 249 257 261 271 277 278 280 281 282
263 264 265 266 267 269 270 271 272 273 274 275 276 277 277 278 278 278 278 277 277 277 276 276 276 275 274 273 272 271 271 271 269 268 266 264 262 261 260 258 257 256 255 254 253 252 252 251 251 250 249 248 248 247 246 246 245 245 244 243 241 239 237 235 234 235 236 237 237 237 236 233 228 227 230 233 235 239 243 245 251 257 266 273 275 276 278 279
266 267 268 269 270 271 272 272 273 274 275 276 277 278 278 279 279 279 279 279 278 278 278 277 277 276 275 274 274 273 273 272 271 269 268 266 264 262 261 260 258 257 256 255 254 253 253 252 251 251 250 249 249 248 247 246 245 245 244 243 242 241 239 237 235 235 236 237 238 237 236 235 231 229 229 232 235 240 244 242 243 252 264 271 271 274 276 276
270 271 271 272 273 273 273 274 275 276 277 278 278 279 279 279 279 279 279 279 279 278 278 278 278 277 277 276 275 275 274 273 272 271 269 268 267 266 264 262 261 259 257 257 256 255 254 253 252 251 251 250 249 248 248 247 246 245 244 243 243 242 241 238 236 235 235 236 237 237 236 235 233 232 232 233 235 238 242 243 242 250 262 268 268 272 275 275
271 272 273 274 274 274 275 275 276 277 277 278 278 278 279 279 279 279 279 279 279 279 279 278 278 278 278 277 277 276 276 275 274 274 272 271 270 269 267 265 264 262 260 258 257 257 256 254 253 252 252 251 250 250 248 247 246 245 245 244 243 242 242 240 238 236 236 236 237 237 236 235 233 233 234 236 237 237 240 243 244 250 258 262 265 269 273 273
270 271 272 273 273 274 274 275 276 276 277 277 277 277 278 278 279 279 279 279 279 279 280 279 279 279 279 279 278 278 277 277 276 275 275 274 274 272 270 268 266 264 262 260 259 258 257 256 254 253 252 252 251 250 249 249 247 246 245 244 243 242 241 241 240 238 237 237 237 237 237 235 233 232 233 235 237 238 240 243 246 250 254 258 262 267 270 270
268 269 270 271 271 272 273 273 274 275 275 276 277 277 277 278 278 279 279 280 280 280 280 280 280 280 280 280 279 279 279 278 278 277 276 276 275 274 272 270 268 266 264 262 261 260 258 257 255 254 253 252 251 250 250 249 248 248 246 244 243 242 241 241 240 239 238 238 237 238 237 236 235 233 233 235 237 238 240 243 246 249 251 254 259 264 266 266
267 268 268 269 270 271 272 273 274 274 275 276 277 277 278 278 279 279 280 280 281 281 281 281 281 281 281 280 280 280 280 280 279 279 278 278 276 275 273 272 270 268 266 264 263 262 260 258 256 255 254 252 251 251 250 249 248 248 247 246 244 243 242 241 240 239 238 238 238 238 238 237 236 236 236 237 238 239 239 242 244 246 247 250 255 260 262 264
267 268 269 270 270 271 272 273 274 275 276 277 277 278 278 279 280 280 281 281 282 282 282 282 282 282 282 281 280 281 280 280 280 280 280 279 278 277 275 274 272 271 269 267 266 264 262 260 258 256 255 253 252 251 250 249 248 247 247 247 246 245 243 241 240 239 239 238 238 238 237 238 237 237 237 237 239 239 239 240 242 244 244 247 251 256 261 264
268 269 269 270 270 271 272 273 274 274 275 276 277 277 278 279 279 280 281 282 282 282 283 283 283 284 283 282 282 282 281 281 281 281 280 280 279 278 277 275 274 272 271 269 268 266 264 262 260 258 255 254 252 251 250 249 248 247 247 246 246 246 244 243 242 240 239 239 238 238 238 237 237 237 237 237 239 240 240 240 241 242 242 244 249 254 261 263
269 270 270 271 271 272 272 273 273 274 275 275 276 277 278 279 279 280 281 281 282 282 283 284 284 284 284 283 283 283 283 284 284 283 282 282 281 280 279 278 276 274 272 271 269 267 265 263 261 259 257 255 253 252 250 249 248 248 247 247 246 246 245 244 243 242 240 240 239 239 238 238 238 238 237 237 238 240 240 240 241 241 241 243 247 253 259 260
270 270 271 271 272 272 273 273 274 275 275 276 277 277 278 279 280 280 281 281 282 283 284 284 285 285 285 285 285 285 285 286 286 286 285 284 283 283 282 280 278 276 275 273 271 268 266 263 261 260 258 256 255 253 251 249 248 248 247 247 246 246 245 244 243 242 241 241 240 239 238 238 238 238 237 237 237 239 240 240 240 241 242 243 246 252 256 256
269 270 270 271 271 272 272 273 274 274 275 276 277 278 278 279 280 281 281 282 282 283 284 285 285 285 285 285 286 287 287 287 288 287 287 286 286 284 283 281 280 278 277 275 272 269 266 264 263 261 259 258 256 255 253 251 250 248 247 246 246 245 245 244 243 243 242 241 241 240 240 238 238 238 238 237 236 238 239 240 240 241 242 243 246 250 252 251
269 269 269 270 270 271 271 272 273 274 275 276 277 278 279 280 280 281 281 281 282 283 284 285 285 285 285 286 287 288 288 288 289 288 288 288 287 286 285 284 282 280 278 275 271 268 266 265 264 262 260 259 257 256 255 253 251 250 248 246 245 244 244 243 243 242 242 242 241 241 241 240 239 238 238 237 236 236 238 239 240 241 241 243 245 248 249 248
270 270 270 270 271 271 272 272 273 275 276 277 277 278 279 280 280 280 281 281 283 284 284 285 285 286 286 286 287 288 288 289 289 289 289 289 288 287 286 285 284 281 278 274 270 268 266 265 264 262 262 260 258 257 255 254 253 251 249 247 246 244 243 242 242 242 241 241 242 241 241 241 240 239 239 238 237 236 236 237 239 240 241 242 244 246 247 247
273 273 273 273 273 273 274 274 275 275 276 276 277 278 279 279 280 280 281 282 284 284 285 285 285 286 287 287 287 288 288 289 290 289 288 288 288 287 287 286 284 281 277 272 269 268 267 266 265 264 263 261 259 258 256 255 253 252 250 248 247 245 243 242 241 241 240 240 240 241 241 241 240 239 239 239 238 237 236 237 238 239 240 242 243 244 245 247
276 276 276 276 275 276 276 276 277 276 276 277 277 278 279 280 280 281 282 283 284 285 285 285 286 287 287 287 287 287 288 290 290 288 287 287 287 286 286 285 283 279 274 270 269 270 271 270 268 267 266 265 264 262 261 259 256 254 252 250 248 246 245 243 242 241 240 239 239 239 240 240 240 239 239 239 238 238 237 236 237 238 240 241 242 243 245 246
277 278 277 277 277 278 278 278 278 278 278 278 279 279 279 280 281 282 283 283 284 284 284 285 286 286 286 286 286 286 287 290 288 285 284 286 286 284 284 282 279 276 273 272 273 277 280 279 276 274 274 274 272 269 267 264 261 258 255 253 250 249 247 245 243 241 240 239 238 238 238 238 239 239 239 238 238 238 237 236 237 238 239 240 241 243 244 245
277 277 277 278 278 279 280 280 279 279 278 278 278 279 280 281 282 282 282 283 283 283 284 285 285 285 286 286 284 284 287 289 284 281 282 284 282 281 280 278 276 277 278 279 283 288 289 286 284 283 282 281 278 275 272 269 265 262 259 256 252 250 248 245 243 242 240 239 238 237 237 237 237 238 238 238 238 238 238 237 236 237 238 239 241 242 244 245
276 277 277 277 278 279 279 278 277 277 277 278 279 280 281 281 281 280 281 282 283 284 285 285 285 285 285 283 281 283 287 283 278 279 282 280 276 276 276 276 278 280 282 285 289 293 292 289 288 289 289 288 285 282 279 275 271 267 263 259 256 252 249 245 242 240 240 239 238 237 237 236 236 237 238 238 237 238 238 238 236 236 237 237 239 240 242 243
276 276 276 277 278 279 278 276 276 277 278 280 281 281 280 279 280 281 282 284 285 285 285 284 285 286 283 279 281 286 284 276 274 278 278 273 269 270 272 275 279 280 282 287 292 294 294 294 295 298 297 294 290 287 284 281 276 273 269 265 261 257 253 249 245 242 239 238 238 237 236 236 236 236 237 237 237 237 237 237 237 236 236 236 236 237 239 241
274 274 275 277 280 280 278 277 278 280 281 282 281 280 280 282 285 286 286 287 287 284 282 284 286 283 276 278 285 285 275 272 274 276 273 268 263 263 267 271 273 275 280 287 292 295 298 300 303 306 305 302 299 295 292 288 283 279 275 272 268 263 259 255 251 246 242 239 237 236 235 234 235 235 235 236 236 236 236 236 236 235 235 235 235 235 237 238
273 273 274 277 280 280 279 280 282 283 283 284 285 286 287 288 289 288 287 288 285 281 283 285 284 279 277 282 286 278 272 273 274 273 273 265 257 258 260 264 265 268 276 284 288 292 297 300 306 310 311 314 312 308 304 298 291 285 280 277 274 271 266 260 255 251 246 241 238 236 234 233 232 233 233 234 235 236 236 235 235 235 235 234 234 234 235 236
272 273 275 277 279 280 283 285 287 288 290 292 293 294 294 292 291 291 291 288 282 281 286 287 283 283 285 285 281 274 275 275 270 271 270 261 260 260 256 258 259 263 272 280 283 288 292 298 305 311 317 323 321 317 313 306 298 292 287 282 278 276 272 266 261 256 252 247 242 238 235 232 231 230 231 232 232 234 235 235 234 233 234 234 234 234 235 236
272 275 277 279 281 284 288 292 295 298 299 300 301 302 302 302 301 298 292 288 285 287 293 294 289 288 286 283 279 275 275 270 267 269 267 265 270 268 260 260 257 259 268 276 281 286 291 299 306 313 323 327 324 321 320 319 316 312 306 297 291 288 286 280 272 264 257 250 243 238 235 232 231 230 229 229 230 231 233 234 233 232 232 233 234 234 234 234
283 287 289 290 292 296 298 300 303 303 302 304 306 308 310 311 310 302 295 297 300 302 303 297 288 287 288 284 275 270 267 264 265 269 268 268 271 265 262 264 254 252 261 270 275 280 292 303 309 317 328 330 327 329 331 331 328 324 319 307 297 292 287 282 275 266 258 249 241 237 234 232 231 231 229 228 228 229 230 232 232 232 231 231 232 233 233 232
300 300 302 302 303 305 306 307 307 304 302 303 306 307 309 313 311 303 302 308 313 312 306 296 293 296 299 291 270 267 266 264 267 270 267 264 262 259 260 260 251 246 251 256 261 271 290 302 309 320 328 330 333 335 332 327 323 323 323 320 311 300 286 277 270 263 256 249 243 239 236 232 231 231 230 228 226 226 228 229 230 230 229 229 230 231 231 231
312 308 307 306 305 305 304 304 305 304 303 303 304 302 302 306 305 303 305 311 315 319 315 312 314 317 315 310 298 287 277 273 273 266 255 254 252 253 257 255 245 241 243 244 248 259 274 290 303 315 320 325 329 325 318 315 319 326 332 336 335 327 317 304 293 281 270 259 248 242 239 235 231 231 231 229 227 225 225 227 228 228 227 226 226 227 228 227
312 310 310 310 309 307 305 303 302 301 301 301 301 299 298 297 297 299 303 306 312 322 327 327 329 331 331 327 322 319 305 288 282 267 248 250 251 252 255 255 245 241 245 246 249 255 263 275 290 299 306 314 312 306 307 312 322 331 337 341 338 333 332 328 319 308 298 284 264 250 243 239 234 230 230 230 229 226 225 225 226 227 226 224 224 224 225 225
315 312 312 312 310 307 305 303 302 300 298 296 295 295 295 294 295 294 295 299 305 313 319 323 327 330 332 330 328 330 323 296 285 278 256 251 256 258 260 263 256 249 253 258 261 265 268 273 279 288 297 301 298 301 312 319 326 332 334 336 336 336 340 338 325 312 304 297 281 261 249 245 241 234 230 229 230 228 226 225 225 226 226 225 224 222 223 224
320 316 312 310 306 303 301 299 298 296 294 293 291 290 290 290 292 290 289 292 296 301 305 309 312 316 318 316 313 319 318 296 282 277 266 260 265 268 270 274 270 261 260 263 268 274 279 279 282 288 290 290 294 305 321 325 325 329 331 333 336 337 340 338 325 310 302 297 286 266 251 247 245 240 233 229 229 229 228 227 226 226 226 226 225 223 222 223
323 319 315 310 305 301 298 295 293 291 289 288 288 287 286 286 285 284 285 288 291 294 297 300 301 295 288 287 287 288 288 279 274 271 265 261 264 265 265 270 272 269 268 269 273 279 284 284 285 287 285 290 301 313 323 323 322 326 327 328 332 334 334 332 325 315 307 300 290 274 255 244 240 239 235 230 229 228 228 228 227 226 226 226 225 224 223 224
336 332 328 321 313 306 300 295 292 289 286 284 283 283 283 283 282 281 282 283 283 284 286 290 293 289 283 281 282 281 273 262 262 264 260 255 254 255 256 262 267 269 271 274 278 282 284 283 284 286 289 296 307 312 315 317 318 322 320 318 324 328 326 326 324 323 326 317 301 288 269 251 243 238 233 230 229 228 228 229 228 227 225 225 225 224 223 222
359 356 352 345 336 326 316 306 298 291 286 282 280 279 279 279 279 278 278 278 278 278 279 279 279 279 279 278 276 277 276 270 265 265 264 258 253 251 252 255 259 263 267 271 275 279 280 282 285 289 293 299 304 305 307 309 312 315 310 309 315 317 317 319 322 330 345 341 315 296 282 263 252 245 238 231 228 227 226 227 227 226 225 223 223 223 222 221
17 16 14 10 3 354 345 333 321 308 296 286 281 279 278 277 277 277 277 277 277 276 275 274 272 271 272 272 272 271 270 269 266 264 265 265 263 262 260 257 257 259 262 264 266 269 272 278 284 287 290 295 297 297 298 297 301 305 302 301 303 304 305 310 319 332 346 347 329 306 289 271 258 251 244 236 229 226 224 224 224 225 224 223 221 221 222 221
29 28 27 25 22 17 11 3 351 337 320 305 293 285 281 280 279 279 279 278 278 277 275 273 272 271 270 270 270 269 267 264 262 260 261 264 265 265 264 262 260 260 262 262 261 260 261 264 269 274 279 285 286 287 287 285 289 295 295 296 297 295 297 304 315 328 337 341 340 331 307 275 259 251 245 240 233 227 224 222 221 221 222 222 220 219 220 220
34 35 34 33 31 28 25 21 13 4 351 334 317 301 291 286 284 283 282 282 281 279 277 274 272 272 270 268 267 266 266 265 263 262 261 262 263 264 264 263 261 261 262 262 261 260 260 260 261 263 266 268 271 275 278 279 282 287 289 293 296 295 296 301 309 317 323 329 337 338 323 284 260 252 247 243 237 229 224 222 220 219 218 218 219 218 218 219
35 36 36 35 34 33 31 28 24 19 12 1 347 330 317 305 296 290 286 286 286 285 281 277 274 271 269 268 268 267 266 266 265 265 264 263 263 263 264 263 261 260 260 260 260 260 261 263 265 265 263 261 261 263 269 275 279 282 284 289 293 293 294 298 302 306 310 315 326 327 317 303 281 260 250 244 238 231 226 224 222 219 217 215 216 217 218 218
34 34 34 34 34 33 32 31 29 26 21 15 7 357 344 332 321 310 297 290 288 287 285 282 279 275 273 272 272 272 271 270 269 269 267 265 264 262 262 262 262 262 260 260 260 261 262 263 263 264 266 266 264 261 264 269 273 275 276 281 284 286 290 296 297 297 301 305 311 313 310 313 316 289 259 246 239 233 229 227 224 221 218 216 214 215 217 217
36 35 34 34 34 32 31 30 29 27 23 19 15 10 2 354 348 337 320 305 296 291 289 288 286 282 279 276 274 273 273 273 272 271 269 266 265 264 262 261 262 262 262 263 263 263 263 263 262 262 264 266 266 264 262 263 266 268 269 271 275 278 285 294 296 295 296 297 300 306 312 320 326 316 295 265 242 233 231 229 226 223 220 218 215 214 216 217
36 35 35 35 34 33 31 28 27 26 24 20 17 14 10 6 0 353 342 328 314 303 296 291 288 286 283 278 275 273 272 272 272 270 268 265 264 263 262 261 261 261 261 263 264 264 263 263 263 262 261 262 263 263 261 259 260 261 261 260 263 269 276 283 290 291 290 290 292 300 311 317 320 321 318 304 266 240 233 230 228 225 223 221 218 216 216 217
33 32 32 32 32 31 30 27 26 25 23 21 17 14 13 9 5 359 352 343 331 319 306 296 289 285 283 281 279 277 275 274 272 271 269 267 264 264 263 262 262 262 262 263 263 263 262 263 263 262 261 261 262 262 260 258 257 258 258 255 254 259 264 266 270 276 280 285 290 294 300 306 310 313 314 311 297 269 248 236 229 226 225 224 221 219 218 218
28 27 26 26 26 26 25 23 22 21 21 20 17 14 12 9 6 2 357 351 343 333 322 309 297 288 283 281 279 278 276 275 274 272 271 270 268 266 265 265 264 263 263 263 263 263 263 263 264 263 261 260 260 259 258 258 257 257 258 257 252 251 254 256 258 262 269 279 287 289 289 292 295 296 295 295 294 285 270 251 238 231 229 226 224 223 222 221
22 22 20 19 19 19 19 17 16 15 15 15 14 12 10 7 4 2 358 354 349 343 335 324 312 300 289 283 280 278 276 275 274 273 272 272 272 270 268 267 266 265 264 262 262 262 262 262 263 263 262 261 261 259 257 257 257 258 259 259 255 251 250 250 251 255 260 266 273 277 277 276 276 278 278 278 276 277 278 267 250 240 235 232 228 225 225 225
16 15 15 14 13 13 12 11 11 10 10 10 9 7 5 4 2 360 356 353 351 346 341 334 325 314 300 290 284 280 277 275 273 272 272 272 272 273 272 271 269 268 267 265 263 261 261 261 262 262 262 261 261 261 260 258 258 258 259 259 257 254 251 248 244 246 251 253 257 263 266 263 259 261 267 269 268 268 271 268 256 243 236 234 230 227 227 227
9 8 7 8 8 8 6 5 4 5 5 5 4 2 360 358 357 357 354 351 349 346 341 336 330 322 313 302 292 286 281 278 275 273 272 271 271 272 272 273 272 270 268 267 266 264 262 262 262 262 262 260 260 261 261 260 259 259 259 258 257 255 253 249 244 241 244 246 248 255 261 262 257 254 258 262 264 267 269 268 263 254 244 237 232 229 227 228
1 360 359 360 0 0 360 359 358 358 359 359 360 359 356 354 352 351 351 349 347 344 339 335 331 326 318 311 302 294 288 284 281 278 275 273 272 271 271 271 272 272 269 267 266 265 263 262 262 262 263 261 260 259 260 260 259 259 259 258 257 255 253 251 246 241 240 242 244 248 256 262 261 257 255 256 258 262 265 266 264 262 258 248 237 231 228 228
353 352 352 352 352 352 353 352 351 351 352 353 353 353 353 351 349 347 346 346 345 342 337 333 331 326 320 313 307 298 291 288 285 282 280 278 276 274 272 271 271 272 271 268 265 264 263 262 261 261 261 261 260 259 258 258 258 258 257 256 255 254 252 251 248 243 239 240 242 243 248 255 260 260 258 256 255 255 257 260 260 260 259 256 247 236 230 229
346 345 345 345 346 345 345 345 345 345 346 346 346 347 347 347 346 344 343 343 341 339 336 332 329 326 320 314 308 301 293 288 284 281 280 279 278 278 276 274 272 271 271 269 267 264 262 260 260 259 259 260 259 257 256 255 256 257 256 254 253 252 251 249 248 245 240 239 240 240 242 247 253 258 260 258 255 253 252 253 255 255 255 256 254 247 236 232
338 339 339 339 338 339 339 339 339 340 340 341 341 342 342 342 343 342 340 340 339 337 334 331 329 325 320 314 309 301 295 290 286 283 281 279 278 278 278 277 274 271 270 269 267 265 262 260 258 258 258 258 258 257 255 253 252 253 254 253 252 251 249 248 248 246 244 241 240 238 239 241 244 249 254 256 254 251 251 251 250 251 251 252 254 253 248 242
332 333 333 333 333 333 334 334 335 336 336 337 338 338 338 339 339 340 339 338 338 335 333 331 328 325 320 314 308 302 297 293 288 285 283 281 278 276 276 276 275 273 270 268 267 266 264 262 259 257 256 257 258 257 256 254 251 250 250 251 251 250 249 248 247 245 244 243 241 239 239 239 239 240 245 250 251 249 248 250 251 251 250 250 249 250 250 247
327 327 328 328 328 328 330 331 331 332 332 333 334 335 336 336 336 337 337 336 336 334 332 330 328 324 320 315 310 306 301 294 288 284 282 281 279 278 276 274 273 273 272 270 267 266 265 263 261 258 254 255 257 256 255 254 252 250 248 248 249 249 248 247 245 243 242 242 241 240 240 240 239 238 239 244 248 249 248 250 252 252 250 247 244 242 243 245